Humidity-temperature Sensor

Selected Measurement Type: Relative Humidity

 
Relative Humidity [%]     6 entries per hour
Showing data from 1/22/2023 (00:00:00 Z) to 1/21/2023 (00:01:00 Z)
Previous Next [ Day | 3-Days | 7-Days ]
First Last
Prev [ Day | 3-Days | 7-Days ] Next
First Last

Start Time:     :
End Time:     :     
Time (in GMT) :00 :50 :40 :30 :20 :10
Previous Next [ Day | 3-Days | 7-Days ]
First Last
Prev [ Day | 3-Days | 7-Days ] Next
First Last


123 => good data
MM => data is determined as missing
-- => data not received/configured
Back to Top Back to Top
1/22/2023 00:00 to 23:10 100.52 100.46 100.62 100.44 100.48 100.33
1/21/2023 23:00 to 22:10 100.25 100.21 100.15 100.13 100.01 99.90
1/21/2023 22:00 to 21:10 99.66 99.59 99.39 99.72 99.61 99.94
1/21/2023 21:00 to 20:10 99.70 99.74 99.68 99.51 99.41 99.27
1/21/2023 20:00 to 19:10 99.22 98.94 98.73 98.85 98.38 97.93
1/21/2023 19:00 to 18:10 97.38 96.57 95.40 93.86 90.88 88.87
1/21/2023 18:00 to 17:10 88.33 87.61 87.66 87.98 88.13 87.90
1/21/2023 17:00 to 16:10 87.59 87.90 88.27 88.81 88.93 89.32
1/21/2023 16:00 to 15:10 89.18 89.13 89.16 88.72 88.91 89.16
1/21/2023 15:00 to 14:10 89.22 89.44 90.41 90.92 90.96 91.23
1/21/2023 14:00 to 13:10 91.50 92.09 93.02 93.88 94.62 95.28
1/21/2023 13:00 to 12:10 95.79 96.06 95.81 95.61 95.73 95.59
1/21/2023 12:00 to 11:10 95.53 94.68 93.66 92.07 91.79 91.35
1/21/2023 11:00 to 10:10 90.86 90.86 91.09 91.11 91.07 90.70
1/21/2023 10:00 to 9:10 90.63 90.59 90.33 90.08 89.92 90.04
1/21/2023 09:00 to 8:10 90.27 90.45 90.35 90.27 90.37 90.45
1/21/2023 08:00 to 7:10 90.53 90.49 89.98 90.16 90.20 90.02
1/21/2023 07:00 to 6:10 89.98 89.65 89.63 89.53 89.63 89.53
1/21/2023 06:00 to 5:10 89.34 89.30 89.46 89.44 89.13 89.38
1/21/2023 05:00 to 4:10 89.46 89.67 89.46 89.26 88.99 89.30
1/21/2023 04:00 to 3:10 89.42 89.38 89.63 89.48 89.28 88.93
1/21/2023 03:00 to 2:10 88.60 88.54 88.46 88.58 88.54 88.35
1/21/2023 02:00 to 1:10 88.66 88.77 88.79 88.93 88.91 88.81
1/21/2023 01:00 to 0:10 88.56 88.52 88.33 88.48 88.11 87.82